Location: Newark
(39.9581°N, 97.2014°W)
Time: 09:14:43
(UTC+00:00)

Vanguard 3 - All Passes

Search period start: 17 February 2020 00:00
Search period end: 27 February 2020 00:00
Orbit: 508 x 3263 km, 33.3° (Epoch: 16 February)

Date Brightness Start Highest point End Pass type
(mag) Time Alt. Az. Time Alt. Az. Time Alt. Az.
17 Feb - 01:44:57 10° WSW 01:54:35 16° SW 02:04:38 10° SSW visible
17 Feb - 15:40:50 10° S 15:45:01 19° SE 15:50:47 10° E daylight
17 Feb - 17:48:45 10° SW 17:55:55 52° SSE 18:08:38 10° E daylight
17 Feb - 19:59:18 10° W 20:09:14 64° S 20:26:11 10° ESE daylight
17 Feb - 22:11:20 10° W 22:24:00 49° SSW 22:42:09 10° SE daylight
18 Feb - 00:26:19 10° W 00:38:52 26° SW 00:53:20 10° S visible
18 Feb - 16:36:17 10° SW 16:41:58 36° SSE 16:51:20 10° E daylight
18 Feb - 18:45:57 10° WSW 18:54:04 62° S 19:08:38 10° E daylight
18 Feb - 20:57:09 10° W 21:08:04 57° SSW 21:25:38 10° ESE daylight
18 Feb - 23:10:12 10° W 23:22:55 36° SSW 23:39:29 10° SSE daylight
19 Feb - 01:30:28 10° WSW 01:37:19 13° SW 01:44:31 10° SSW visible
19 Feb - 15:24:43 10° S 15:28:39 19° SE 15:34:04 10° E daylight
19 Feb - 17:32:58 10° WSW 17:39:33 52° SSE 17:51:15 10° E daylight
19 Feb - 19:43:29 10° W 19:52:35 61° S 20:08:28 10° ESE daylight
19 Feb - 21:55:21 10° W 22:06:59 44° SSW 22:24:08 10° SE daylight
20 Feb - 00:10:40 10° W 00:21:38 22° SW 00:34:32 10° S visible
20 Feb - 16:20:27 10° SW 16:25:41 37° SSE 16:34:15 10° E daylight
20 Feb - 18:30:11 10° WSW 18:37:38 60° S 18:51:06 10° ESE daylight
20 Feb - 20:41:16 10° W 20:51:17 52° SSW 21:07:44 10° SE daylight
20 Feb - 22:54:22 10° W 23:05:49 31° SSW 23:21:04 10° SSE daylight
21 Feb - 15:08:41 10° SSW 15:12:23 20° SE 15:17:27 10° E daylight
21 Feb - 17:17:15 10° WSW 17:23:17 52° SSE 17:33:57 10° E daylight
21 Feb - 19:27:42 10° W 19:36:03 57° S 19:50:45 10° ESE daylight
21 Feb - 21:39:31 10° W 21:50:05 39° SSW 22:05:56 10° SE daylight
21 Feb - 23:55:29 10° WSW 00:04:32 18° SW 00:15:13 10° S daylight
22 Feb - 16:04:41 10° SW 16:09:29 37° SSE 16:17:18 10° E daylight
22 Feb - 18:14:30 10° WSW 18:21:19 58° S 18:33:37 10° ESE daylight
22 Feb - 20:25:30 10° W 20:34:38 47° SSW 20:49:46 10° SE daylight
22 Feb - 22:38:45 10° W 22:48:52 26° SSW 23:02:21 10° SSE daylight
23 Feb - 14:52:43 10° SSW 14:56:11 21° SSE 15:00:55 10° E daylight
23 Feb - 17:01:35 10° WSW 17:07:07 51° S 17:16:46 10° E daylight
23 Feb - 19:11:59 10° W 19:19:37 52° S 19:33:02 10° ESE daylight
23 Feb - 21:23:50 10° W 21:33:19 34° SSW 21:47:35 10° SSE daylight
23 Feb - 23:41:09 10° WSW 23:47:36 14° SW 23:54:58 10° SSW daylight
24 Feb - 15:48:58 10° SW 15:53:24 38° SSE 16:00:26 10° E daylight
24 Feb - 17:58:51 10° WSW 18:05:06 54° S 18:16:12 10° ESE daylight
24 Feb - 20:09:49 10° W 20:18:05 41° SSW 20:31:44 10° SE daylight
24 Feb - 22:23:29 10° WSW 22:32:03 21° SSW 22:43:18 10° S daylight
25 Feb - 14:36:48 10° SSW 14:40:06 22° SSE 14:44:30 10° ESE daylight
25 Feb - 16:45:57 10° WSW 16:51:02 49° S 16:59:41 10° ESE daylight
25 Feb - 18:56:22 10° W 19:03:17 46° S 19:15:20 10° SE daylight
25 Feb - 21:08:20 10° WSW 21:16:42 28° SSW 21:29:03 10° SSE daylight
26 Feb - 15:33:16 10° SW 15:37:23 38° SSE 15:43:42 10° E daylight
26 Feb - 17:43:15 10° WSW 17:48:57 49° S 17:58:52 10° ESE daylight
26 Feb - 19:54:16 10° W 20:01:40 34° SSW 20:13:37 10° SE daylight
26 Feb - 22:08:46 10° WSW 22:15:24 16° SSW 22:23:42 10° S daylight
